Kennebunkport, ME

4:00 PM EDT on July 24, 2017 (GMT -0400)
Cape Arundel Golf | | Change Station
Active Advisory: Coastal Flood Advisory Active Notice: Coastal Flood Advisory

Elev 30 ft 43.37 °N, 70.48 °W | Updated 5 seconds ago

Rain
Rain
57.7 °F
Feels Like 57.7 °F
N
4.9
Wind Variable Wind from North
Gusts 4.9 mph

Today
High -- | Low -- °F
--% Chance of Precip.
Yesterday
High -- | Low -- °F
Precip. -- in
Pressure 30.01 in
Visibility 8.0 miles
Clouds
Dew Point 56 °F
Humidity 95%
Rainfall 0.45 in
Snow Depth Not available.
5:23 AM 8:12 PM
Waxing Crescent, 3% visible
METAR KSFM 241956Z AUTO 07009G16KT 8SM RA 14/12 A2998 RMK AO2 SLP162 P0010 T01390122 $
Pressure 30.01 in
Visibility 8.0 miles
Clouds
Dew Point 56 °F
Humidity 95%
Rainfall 0.45 in
Snow Depth Not available.
5:23 AM 8:12 PM
Waxing Crescent, 3% visible
METAR KSFM 241956Z AUTO 07009G16KT 8SM RA 14/12 A2998 RMK AO2 SLP162 P0010 T01390122 $

Get Your Daily Forecast Email!

Thanks for signing up!

Be on the lookout for a verification email in your inbox.

You'll start receiving severe weather alerts in your inbox..

×

10-Day Weather Forecast

Almanac

Astronomy

Jul. 24, 2017 Rise Set
Actual Time
Civil Twilight
Nautical Twilight
Astronomical Twilight
Moon
Length of Visible Light
Length of Day
Tomorrow will be .
, % of the Moon is Illuminated

Today's Extremes

State Highs State Lows

Community

WunderPhotos

Category 6

Welcome to Category 6. This is the collective home for Weather Underground's featured writeups by Dr. Jeff Masters (right), Bob Henson (left), Chris Burt, and other regular contributors.

Nearby

Air Quality

  Air Quality AQ Index Pollutant
Not available.

Snow Depth

Station Depth Elevation

Earthquake Activity

City Distance Mag. Time & Date
Minimum magnitude displayed is 2.5.

Coastal Water Temperatures

Place Temperature

Stations

Nearby Weather Stations

Station Location Temp. Windchill Dew Point Humidity Wind Precip. Elev Updated Type
                   

Watches & Warnings

Coastal Flood Advisory
Issued: 3:31 PM EDT Jul. 24, 2017 – National Weather Service

... Coastal flood advisory remains in effect from midnight tonight
to 3 am EDT Tuesday...

* location... the southwest coast of Maine and seacoast of New
Hampshire.

* Coastal flooding... minor flooding of wharfs and shore roads.

* Timing... around the time of high tide... which is at 1246 am in
Portland.

Precautionary/preparedness actions...

A coastal flood advisory indicates that onshore winds and tides
will combine to generate flooding of low areas along the shore.


Jc